Temp
64 64 63 63 64 64 64 64 64 64 64 64 64 64 64 64 64 80 90 94 92 83 87 96 95 93 91 89 90 91 84 79 80 81 80 87 83 88 90 87 89 90 91 92 92
64 63 63 63 63 63 63 63 64 64 64 64 63 64 64 64 81 90 90 83 82 83 97 93 90 90 89 89 92 90 86 83 89 90 86 87 86 86 85 85 85 86 93 92 92
63 63 62 62 63 63 63 63 63 63 63 63 63 64 64 70 87 100 83 82 83 85 101 99 96 91 89 91 90 89 84 89 89 92 92 89 87 90 86 82 87 84 87 89 89
62 62 62 62 62 62 62 62 62 62 62 63 63 64 64 81 85 98 82 82 83 99 100 96 93 89 90 88 91 86 89 91 91 91 91 87 91 87 89 89 94 92 91 90 88
62 62 62 62 62 62 62 62 62 61 62 62 63 64 75 88 95 95 82 84 93 99 98 95 91 93 89 91 91 89 92 92 94 92 93 92 88 88 88 92 96 93 91 90 91
61 61 61 61 61 61 61 61 60 61 62 62 63 64 86 87 100 98 95 92 99 99 99 98 96 97 93 92 91 93 95 92 94 92 92 88 88 88 90 93 92 90 90 92 93
61 61 61 60 61 61 60 60 60 61 62 62 64 76 89 93 99 100 98 97 102 102 98 101 100 96 96 92 96 94 89 91 91 91 88 91 82 84 92 91 89 89 90 92 93
60 60 60 60 60 60 59 59 60 64 62 63 65 84 90 96 102 97 100 98 102 103 100 102 101 97 94 97 94 89 89 80 88 90 89 89 80 89 93 90 88 89 89 90 92
60 60 60 60 59 58 58 58 64 64 64 65 80 88 90 85 93 100 100 95 96 98 99 98 99 96 95 90 86 87 78 80 82 91 89 87 83 91 94 92 89 90 90 90 91
60 59 59 59 58 57 57 59 66 66 74 81 87 85 91 92 97 97 99 99 93 94 91 92 95 91 93 89 76 79 80 81 80 88 88 86 85 91 92 92 91 91 91 90 91
59 59 58 58 57 56 65 83 83 83 86 90 91 89 92 98 99 94 97 96 97 93 87 92 87 85 90 90 89 87 83 81 85 89 85 85 86 91 91 91 91 93 91 92 92
59 58 58 58 57 56 69 87 86 86 84 93 90 89 94 96 91 93 101 92 91 86 92 87 83 93 92 90 88 87 84 83 85 85 84 86 85 90 93 89 91 92 93 92 93
58 58 58 57 56 66 84 89 90 90 84 87 90 91 93 94 92 91 96 96 91 89 88 86 90 94 89 88 86 87 85 84 82 83 86 83 82 86 90 90 92 94 96 96 94
58 58 57 55 63 82 86 88 90 89 81 81 85 90 92 95 88 101 100 96 91 87 90 89 94 88 88 86 89 83 90 87 84 80 77 83 74 85 87 84 87 91 93 96 96
58 57 56 55 70 83 85 89 91 89 69 85 86 96 95 91 93 91 101 96 88 88 88 85 86 86 85 87 92 85 89 87 85 83 82 82 77 83 85 83 85 90 93 95 98
58 56 55 62 70 82 85 87 88 76 67 80 87 85 84 90 91 92 92 98 98 91 90 89 94 91 91 94 91 91 87 86 86 85 75 83 80 82 85 87 91 94 94 95 98
56 54 57 73 85 85 86 87 76 72 83 79 82 87 87 86 88 89 87 86 83 77 78 85 87 92 92 88 90 89 85 74 72 74 74 84 79 85 91 94 94 95 96 97 99
53 52 60 76 83 82 86 82 68 77 79 84 84 84 82 88 88 88 86 84 90 88 84 78 74 86 92 89 84 85 86 76 64 70 77 83 75 86 95 98 99 99 100 100 98
52 79 84 85 84 83 84 74 77 77 80 80 83 80 81 85 86 86 85 85 89 90 80 78 77 90 92 93 92 85 78 90 81 84 76 81 85 93 98 98 99 99 100 100 100
77 87 86 87 87 86 81 68 76 80 80 81 76 80 79 82 81 84 83 89 87 92 94 86 75 87 89 92 92 89 92 79 80 66 65 76 78 81 89 93 99 99 99 102 102
79 84 87 90 87 85 76 77 76 82 80 78 77 78 81 80 83 83 84 84 89 88 92 90 85 82 87 83 83 83 82 84 86 82 72 70 78 95 92 96 97 101 102 103 103
83 80 88 90 80 83 79 74 61 78 81 80 81 80 78 79 81 83 81 85 85 89 83 90 87 79 82 92 93 92 86 87 76 74 80 79 79 100 99 101 101 102 103 105 103
79 83 93 89 76 77 75 75 76 76 75 76 76 78 80 79 74 80 82 83 84 86 84 88 82 76 78 86 88 84 88 91 90 88 78 75 79 99 101 100 102 101 103 101 100
76 75 82 83 80 76 73 71 72 76 75 76 75 79 77 76 80 76 78 81 82 82 69 79 86 81 76 78 86 80 84 87 88 80 80 81 84 91 95 97 101 102 100 101 97
73 68 66 74 73 74 74 71 69 69 74 76 73 73 72 73 75 73 76 79 82 76 82 85 79 83 84 85 84 83 84 85 83 85 80 84 85 91 96 98 100 102 100 99 97
68 66 72 69 67 69 61 66 66 68 69 69 69 70 73 72 68 69 70 76 76 80 81 84 77 79 76 84 82 80 84 86 86 86 87 88 86 98 100 99 97 98 98 96 96
70 70 66 54 64 69 67 64 63 66 68 69 68 70 70 69 70 73 76 78 77 74 75 78 79 76 71 82 80 75 82 85 87 90 89 83 91 98 95 95 96 98 99 98 99
MSLP
1014.86 1014.36 1013.87 1013.42 1013.00 1012.64 1012.21 1011.74 1011.38 1011.29 1011.07 1010.92 1010.63 1010.49 1010.27 1010.15 1009.88 1008.92 1006.67 1005.21 1005.85 1006.54 1006.64 1006.43 1006.52 1006.58 1006.82 1005.97 1005.81 1005.14 1002.96 1002.92 1003.58 1003.80 1005.32 1006.20 1006.49 1007.13 1007.53 1007.89 1008.27 1008.62 1008.67 1009.91 1011.45
1014.88 1014.26 1013.73 1013.22 1012.80 1012.37 1012.05 1011.67 1011.16 1010.91 1010.94 1010.68 1010.50 1010.34 1010.18 1010.02 1008.67 1006.50 1004.97 1005.17 1005.72 1006.05 1005.68 1005.59 1005.64 1006.19 1005.65 1005.14 1004.89 1003.70 1002.28 1003.02 1003.39 1003.91 1004.58 1005.64 1006.05 1006.73 1007.15 1007.54 1008.16 1008.70 1009.00 1010.42 1011.47
1015.02 1014.38 1013.70 1013.08 1012.57 1012.11 1011.69 1011.45 1011.05 1010.60 1010.69 1010.45 1010.30 1010.10 1010.00 1009.66 1007.23 1003.61 1004.48 1005.15 1005.63 1005.83 1005.27 1005.21 1005.37 1005.48 1004.53 1004.50 1004.04 1003.64 1002.76 1003.23 1003.64 1003.80 1004.29 1005.08 1005.78 1006.36 1006.58 1006.91 1007.50 1008.39 1009.28 1010.32 1011.18
1015.09 1014.47 1013.73 1012.97 1012.42 1011.88 1011.38 1011.03 1010.81 1010.40 1010.34 1010.19 1010.00 1009.87 1009.77 1008.67 1005.30 1004.14 1004.83 1005.19 1005.64 1005.33 1005.08 1004.90 1004.98 1004.39 1003.50 1003.02 1003.59 1002.84 1003.23 1003.18 1003.51 1004.22 1004.38 1004.87 1005.41 1005.99 1006.11 1006.18 1007.06 1008.13 1009.25 1010.06 1010.76
1014.99 1014.39 1013.65 1012.92 1012.26 1011.64 1011.10 1010.65 1010.43 1010.14 1009.93 1009.82 1009.72 1009.57 1009.12 1006.79 1004.14 1004.40 1005.24 1005.65 1005.64 1005.13 1004.57 1004.39 1004.18 1003.33 1002.59 1002.74 1003.02 1002.43 1002.61 1003.16 1003.41 1004.10 1004.28 1004.93 1005.26 1005.46 1006.13 1006.59 1007.25 1008.27 1009.18 1009.70 1010.19
1014.76 1014.21 1013.49 1012.74 1012.12 1011.49 1010.82 1010.22 1009.84 1009.67 1009.42 1009.39 1009.41 1009.34 1007.65 1005.03 1004.16 1004.38 1004.89 1005.50 1004.76 1004.58 1004.26 1004.03 1003.38 1003.33 1002.81 1002.48 1002.24 1002.54 1002.43 1003.04 1003.40 1003.84 1004.25 1004.72 1005.06 1005.65 1005.93 1006.61 1007.32 1008.24 1008.87 1009.33 1009.58
1014.61 1013.83 1013.13 1012.51 1011.99 1011.29 1010.63 1009.76 1009.18 1008.99 1008.90 1009.00 1009.04 1008.50 1006.11 1004.04 1004.20 1004.21 1004.64 1004.78 1004.54 1004.32 1003.82 1003.84 1003.84 1003.35 1002.95 1002.07 1002.60 1002.49 1002.52 1003.07 1003.49 1003.91 1004.29 1004.60 1004.98 1005.07 1005.61 1006.65 1007.17 1007.81 1008.52 1008.91 1009.32
1014.28 1013.50 1012.87 1012.20 1011.67 1011.00 1010.29 1009.42 1008.58 1008.07 1008.40 1008.63 1008.67 1007.48 1004.37 1004.44 1004.14 1004.40 1004.41 1004.57 1004.70 1004.42 1004.37 1004.11 1004.10 1003.63 1003.02 1002.56 1002.37 1002.22 1002.35 1002.48 1003.37 1003.78 1004.26 1004.52 1003.28 1004.23 1005.43 1006.16 1006.66 1007.35 1007.94 1008.56 1008.89
1013.93 1013.20 1012.59 1011.94 1011.34 1010.82 1009.95 1009.34 1008.51 1008.19 1008.30 1008.42 1007.82 1006.09 1003.76 1004.95 1004.09 1003.88 1004.15 1004.05 1004.68 1004.89 1004.80 1004.69 1003.91 1002.93 1002.43 1001.74 1001.57 1001.97 1001.52 1002.04 1002.86 1003.43 1003.53 1004.00 1002.83 1003.50 1004.82 1005.33 1005.92 1006.71 1007.28 1007.92 1008.63
1013.71 1013.04 1012.38 1011.70 1011.01 1010.48 1009.72 1009.15 1008.70 1008.54 1008.27 1007.71 1006.54 1005.34 1003.72 1002.71 1003.11 1003.57 1004.09 1003.89 1004.12 1004.42 1004.57 1004.15 1003.13 1002.04 1001.43 1000.90 1000.36 1001.04 1001.42 1002.01 1002.11 1002.78 1003.24 1003.01 1002.94 1003.19 1004.27 1004.53 1004.95 1005.76 1006.54 1007.24 1007.69
1013.35 1012.78 1012.12 1011.44 1010.77 1010.31 1009.31 1008.26 1008.22 1007.13 1005.91 1003.71 1003.16 1002.74 1002.37 1002.71 1003.10 1003.30 1003.75 1003.63 1003.48 1003.60 1002.80 1002.82 1002.01 1000.91 1000.28 1000.58 1000.61 1001.03 1001.25 1001.55 1001.88 1002.49 1002.93 1002.42 1002.20 1002.09 1003.13 1004.02 1004.13 1004.70 1005.62 1006.29 1006.74
1012.97 1012.44 1011.79 1011.07 1010.31 1009.82 1009.06 1006.29 1005.67 1005.55 1003.73 1002.97 1003.05 1002.89 1002.61 1002.45 1001.96 1002.68 1002.97 1002.44 1002.45 1001.96 1001.76 1002.14 1001.06 1000.30 1000.54 1001.00 1001.02 1000.97 1000.81 1000.91 1001.84 1002.65 1002.89 1001.91 1001.47 1001.60 1001.77 1003.12 1003.46 1003.82 1004.53 1005.28 1005.99
1012.60 1012.06 1011.40 1010.64 1009.76 1009.05 1007.21 1005.50 1005.72 1005.21 1003.38 1002.20 1002.09 1001.82 1001.81 1002.23 1001.00 1001.79 1002.36 1001.42 1001.16 1000.86 1001.05 1000.36 1000.15 1000.26 1000.93 1000.80 1000.72 1000.45 1000.38 1000.62 1001.44 1002.23 1002.27 1001.98 1000.61 1000.52 1001.22 1002.32 1002.98 1003.41 1003.78 1004.30 1005.08
1012.18 1011.64 1011.03 1010.27 1009.61 1007.75 1006.10 1005.88 1005.76 1005.35 1002.39 1001.45 1001.33 1001.15 1001.63 1001.15 1000.86 1000.88 1001.65 1001.15 1000.94 1000.51 1000.49 1000.26 1000.13 1000.83 1000.66 1000.37 1000.39 999.78 1000.29 1001.01 1001.13 1001.61 1000.56 1001.54 999.93 999.53 1000.38 1001.43 1002.07 1002.58 1003.03 1003.36 1004.10
1011.64 1011.09 1010.76 1010.72 1009.00 1006.70 1006.14 1006.04 1005.62 1004.89 1001.11 1000.46 1000.71 1001.29 1000.84 1000.41 999.83 1000.87 1001.18 1001.11 1000.28 1000.47 1000.65 999.97 1000.40 1000.61 1000.27 999.96 1000.03 1000.23 1000.70 1000.81 1000.88 1000.76 1000.48 1000.00 1000.09 998.97 999.97 1000.18 1000.79 1001.43 1001.91 1002.56 1003.05
1010.88 1010.49 1010.20 1009.77 1008.82 1006.56 1006.40 1005.99 1005.27 1002.96 999.61 999.70 1000.09 1000.23 1000.36 999.92 999.55 1000.39 1000.88 1001.09 1000.33 1000.12 1000.68 1000.04 1000.04 1000.45 999.94 999.81 1000.35 1000.52 1000.76 1000.66 1000.56 1000.21 999.37 998.71 999.21 997.53 998.37 998.74 998.92 999.86 1000.70 1001.44 1002.07
1010.18 1009.74 1009.57 1008.13 1006.12 1006.49 1006.18 1005.08 1002.86 1000.32 999.60 999.32 998.89 999.09 998.90 998.83 998.94 999.41 999.75 999.95 999.71 999.84 999.60 999.88 999.85 1000.10 1000.38 999.63 1000.44 1000.62 1000.05 999.43 999.05 998.74 998.08 998.77 998.69 996.93 997.58 997.89 998.17 998.30 999.25 1000.24 1000.93
1009.62 1009.14 1008.62 1007.50 1006.70 1006.50 1005.26 1003.39 1000.91 999.67 998.91 999.34 998.93 998.94 998.32 998.05 998.20 998.50 998.59 998.58 998.97 998.72 998.27 998.71 998.81 999.31 999.63 999.28 999.55 999.83 999.37 998.70 998.04 997.69 997.29 998.47 997.57 996.44 997.15 997.26 997.43 997.73 997.99 998.79 999.90
1009.00 1007.71 1006.90 1006.19 1006.30 1006.14 1004.09 1001.71 999.96 1000.03 1000.10 999.38 999.09 998.47 998.11 998.11 998.08 998.02 997.94 997.77 998.01 998.58 998.35 998.28 998.40 998.65 998.87 999.26 999.32 998.98 999.38 999.11 998.37 997.77 998.01 997.60 996.75 996.51 996.13 996.03 996.46 996.92 997.12 997.68 998.36
1007.97 1006.15 1005.47 1005.61 1005.80 1004.86 1002.97 1001.15 1001.22 1001.36 1000.89 1000.07 998.68 998.44 997.39 997.61 997.88 997.74 997.58 997.61 997.73 998.21 998.59 998.24 998.29 998.48 998.60 999.23 999.21 998.97 999.10 999.04 998.91 997.99 997.14 996.65 996.27 995.73 995.51 995.57 995.36 995.45 996.15 996.51 997.42
1007.50 1004.90 1005.21 1005.40 1005.24 1003.48 1001.94 1001.58 1002.01 1001.91 1001.74 1000.69 999.72 998.91 998.13 997.72 997.66 997.42 997.45 998.72 998.71 998.92 998.82 998.61 998.34 997.94 998.55 998.59 998.05 999.04 998.77 998.50 997.97 997.29 996.69 996.17 995.30 994.92 995.11 995.06 994.86 994.82 995.26 995.61 996.45
1006.61 1004.17 1004.86 1005.00 1003.50 1003.15 1002.26 1003.03 1003.28 1002.45 1002.17 1001.44 1000.94 1000.11 999.39 999.16 998.21 997.72 998.06 998.39 999.94 999.31 999.12 998.83 998.16 997.39 997.18 997.08 997.61 997.28 997.55 997.82 997.31 997.03 996.97 996.20 995.16 994.87 994.79 994.60 994.50 994.65 994.85 995.22 995.99
1006.75 1004.98 1004.39 1004.12 1002.71 1002.80 1003.60 1003.45 1003.57 1003.01 1003.01 1002.35 1001.61 1001.43 1000.86 1000.00 999.65 999.28 999.27 1000.69 1000.53 999.93 999.48 999.39 998.54 997.06 996.71 997.04 997.66 997.31 996.93 996.59 996.57 996.44 995.61 995.18 994.90 994.81 994.36 994.29 994.31 994.42 994.57 995.31 996.03
1007.85 1005.10 1004.56 1004.61 1004.91 1003.90 1003.79 1003.91 1003.81 1004.36 1003.96 1003.64 1002.94 1002.41 1001.65 1001.02 1000.87 1000.37 1000.34 1001.00 1001.33 1001.23 1001.28 1000.29 998.11 997.01 995.77 995.82 995.81 996.29 996.39 996.28 995.96 995.16 995.24 994.94 994.81 994.73 994.30 993.85 993.48 993.84 994.84 995.26 996.15
1008.76 1007.91 1008.12 1005.51 1005.49 1005.23 1005.13 1005.13 1004.67 1004.58 1004.78 1004.59 1003.92 1003.67 1003.10 1002.00 1001.80 1001.77 1001.88 1001.50 1001.59 1001.81 1001.12 1000.08 998.33 997.55 997.01 996.66 996.67 996.17 995.64 995.57 995.52 995.19 994.73 994.41 994.32 994.09 993.95 993.55 993.47 993.84 994.52 994.97 995.59
1009.98 1009.64 1008.97 1008.00 1007.46 1006.53 1006.46 1006.37 1006.12 1006.07 1005.96 1005.34 1005.09 1005.05 1004.46 1003.79 1004.43 1003.52 1003.63 1002.69 1002.01 1002.07 1001.21 1000.35 999.16 998.62 997.85 997.08 996.96 996.18 995.71 995.29 995.14 995.17 994.85 994.71 994.43 994.21 993.97 994.05 994.24 994.21 994.33 994.69 995.14
1012.10 1011.74 1010.66 1009.68 1008.42 1007.55 1007.68 1007.95 1007.90 1007.71 1007.50 1007.26 1006.94 1006.21 1005.75 1006.10 1006.52 1005.85 1005.21 1004.45 1003.82 1003.25 1001.94 1001.02 999.74 998.98 997.71 996.91 996.82 995.76 995.06 994.84 994.76 994.69 994.82 994.35 994.44 994.09 994.13 994.32 994.19 993.95 994.04 994.16 994.46
Wind_Speed
20 19 19 18 18 17 16 16 16 14 14 11 10 8 7 6 5 6 10 3 8 20 15 16 11 10 7 4 4 3 5 8 9 9 10 13 8 5 3 12 11 6 10 19 19
20 21 20 20 19 18 16 16 17 16 14 12 9 7 6 5 9 12 6 14 24 19 20 18 13 12 5 3 4 7 6 11 8 11 12 14 8 10 9 13 12 10 12 22 22
21 22 21 21 21 20 19 17 16 17 14 12 9 7 5 9 8 3 12 18 25 20 15 11 11 10 6 3 2 1 8 7 8 9 13 12 8 9 10 11 13 14 21 23 23
21 22 22 22 22 21 20 19 17 17 14 11 9 7 5 8 4 6 12 22 23 18 16 10 12 8 5 1 3 3 4 3 9 7 10 11 11 8 6 6 12 14 21 22 21
22 21 21 22 22 22 21 20 18 17 14 10 8 7 7 8 3 7 14 21 22 19 17 12 8 6 7 4 6 2 11 8 10 10 10 9 9 8 8 4 15 16 19 21 19
21 21 21 21 22 22 21 21 20 15 12 8 7 6 8 9 3 9 18 22 18 19 15 9 3 6 5 3 2 6 13 11 10 9 9 9 6 3 9 10 17 17 19 18 18
22 22 22 21 23 23 23 23 21 14 10 8 7 7 7 2 3 8 17 20 14 16 12 8 4 9 8 4 3 7 13 11 9 9 6 6 6 9 13 13 16 17 17 18 17
22 22 22 22 23 23 23 22 21 9 8 8 8 7 5 3 6 10 14 15 12 8 2 5 8 11 7 2 7 6 6 8 9 9 5 11 8 13 14 16 16 16 16 17 19
22 23 23 23 23 21 22 22 10 6 8 10 8 8 5 4 10 12 13 14 13 12 6 4 5 8 5 10 9 8 5 4 9 10 6 13 0 6 14 16 15 15 16 17 18
22 22 22 23 22 21 22 15 0 8 7 6 4 7 7 5 10 11 11 11 12 14 10 11 8 10 9 8 8 8 7 4 5 8 13 13 14 8 12 16 16 16 16 17 19
22 22 22 24 23 18 14 6 8 8 9 6 4 2 8 9 12 12 15 17 11 15 14 14 10 12 12 6 6 5 5 7 2 3 10 12 14 11 14 15 16 17 18 18 19
23 22 24 24 22 20 7 6 6 6 6 10 9 5 3 2 11 14 16 15 16 17 15 10 14 12 3 4 7 10 9 3 4 2 8 12 13 12 11 17 17 18 19 20 18
23 23 21 24 23 8 5 1 4 4 7 7 6 10 10 9 6 19 20 12 17 17 17 17 10 6 9 10 12 11 9 7 8 1 10 10 16 8 10 14 15 16 18 20 20
23 21 19 21 9 3 3 4 6 5 7 9 8 7 10 8 8 14 21 12 7 16 15 14 9 7 13 14 13 15 6 8 6 7 4 3 6 5 7 13 17 18 19 20 21
25 20 14 5 9 5 7 4 3 6 8 8 8 8 11 14 16 11 18 13 16 13 9 15 11 14 16 15 15 13 5 7 5 9 6 12 7 7 5 10 17 19 20 21 22
26 20 12 6 5 5 5 4 6 8 3 7 7 10 15 16 8 14 16 12 9 15 15 18 2 12 18 18 7 1 6 8 7 8 11 3 6 7 8 5 8 17 20 22 23
24 19 6 2 3 1 5 6 8 9 5 9 8 10 16 16 13 18 18 18 14 15 14 15 15 13 11 14 9 14 13 10 11 11 6 7 6 8 6 5 5 6 17 21 23
25 11 6 4 5 6 6 9 8 3 1 4 4 5 12 15 14 14 17 18 21 18 11 13 14 17 13 18 13 15 18 12 9 11 5 5 6 7 5 4 5 7 7 17 21
21 5 4 5 2 5 8 10 3 1 2 2 7 11 12 13 9 14 16 17 17 17 15 8 11 6 17 15 14 12 12 15 19 13 9 12 7 11 11 2 6 8 7 12 19
5 3 4 5 4 7 8 5 3 2 4 4 8 6 12 18 13 16 15 9 8 15 18 9 7 7 8 9 15 18 10 12 11 16 16 10 9 10 8 10 10 5 6 7 13
5 5 6 2 5 7 8 3 2 2 5 4 2 4 1 7 14 17 13 7 8 11 14 15 11 6 8 13 13 11 18 14 16 14 15 13 10 6 6 10 12 14 4 6 11
5 4 5 3 6 1 4 2 2 2 3 1 3 2 3 1 8 10 9 3 1 7 13 19 10 14 15 10 7 14 20 24 15 18 11 14 12 13 14 16 15 13 7 6 8
5 3 3 5 4 4 5 5 4 2 6 3 1 4 2 1 5 3 5 6 3 6 5 9 12 11 10 10 10 13 16 19 24 20 20 16 10 11 14 14 13 12 5 5 9
5 4 4 3 1 4 2 3 5 6 6 2 3 2 4 4 1 6 7 5 3 8 3 5 14 13 11 1 6 19 17 20 23 18 15 17 19 15 19 18 13 8 4 5 10
4 5 4 1 4 2 2 1 3 3 4 6 4 6 3 5 5 4 2 3 5 2 3 7 13 14 14 9 9 10 13 19 21 23 23 17 17 14 16 18 8 7 9 9 11
5 5 1 4 2 4 3 3 2 2 5 3 2 4 5 2 7 4 6 2 3 4 4 4 8 6 14 13 10 13 16 18 15 19 21 21 18 15 21 8 9 9 9 12 14
3 2 6 2 4 5 4 2 2 3 4 6 5 6 3 5 8 9 9 10 10 7 6 8 7 9 14 10 11 16 17 18 17 17 18 18 18 13 7 8 11 12 10 14 15
Wind_Direction
346 346 345 342 339 339 339 335 332 334 334 335 327 329 327 323 279 208 233 165 165 166 160 151 169 166 191 226 228 258 228 95 106 111 131 148 145 126 79 141 152 152 149 134 146
343 341 340 339 337 335 336 333 328 328 331 327 319 318 316 307 252 246 138 142 146 167 169 170 168 166 206 215 206 267 56 80 96 114 136 158 153 144 164 151 141 140 126 140 154
341 338 335 335 335 333 332 330 325 322 325 319 312 305 295 277 258 134 124 153 158 179 167 181 167 186 251 214 150 81 68 125 117 104 134 150 150 154 148 170 166 157 150 156 163
338 334 332 332 332 331 328 326 323 317 316 311 303 292 283 233 224 58 150 155 161 175 169 177 179 213 259 26 110 192 144 126 126 138 134 150 140 158 179 92 152 155 164 163 169
334 330 329 331 330 329 325 322 319 312 304 297 287 277 240 216 268 84 149 157 171 172 180 179 191 266 22 53 133 142 113 153 138 156 153 153 158 132 182 117 140 150 168 171 176
331 326 327 329 329 328 324 320 316 305 291 275 257 256 241 240 58 128 163 168 181 182 189 206 323 344 306 51 347 115 125 122 145 151 148 177 163 201 153 146 148 162 177 181 184
328 326 327 329 328 329 325 321 314 297 260 243 224 240 239 9 54 154 165 179 183 193 191 216 307 295 347 125 116 153 126 133 150 160 156 203 189 212 146 159 160 172 180 187 187
325 325 325 328 329 328 325 325 318 286 203 205 204 230 269 64 134 160 167 181 183 185 286 262 257 284 258 283 168 166 195 164 159 185 151 216 132 185 163 175 176 176 178 190 189
324 324 326 328 327 327 326 326 339 103 155 169 203 246 184 152 187 169 182 177 183 197 209 308 248 258 210 226 173 205 170 216 165 204 189 218 264 155 177 191 186 184 182 187 190
323 324 326 325 325 327 323 300 82 153 169 218 279 222 171 174 146 161 191 171 166 182 211 238 228 234 216 223 197 182 218 203 249 188 226 231 246 176 196 206 198 191 187 190 193
323 325 326 327 324 327 319 209 204 179 207 267 139 340 134 103 147 175 167 172 172 189 197 193 219 216 207 217 346 221 256 255 245 128 258 250 266 275 180 212 209 198 192 192 201
323 325 327 325 320 320 260 256 35 1 273 218 233 257 192 332 153 158 176 176 183 193 206 180 226 231 315 213 226 224 248 237 99 196 249 282 277 276 208 212 211 203 194 197 196
322 325 324 324 319 277 286 349 20 303 252 155 189 215 197 211 197 165 192 199 194 204 204 226 216 213 223 219 241 236 274 329 342 221 246 284 268 238 218 207 217 214 206 201 195
323 326 326 324 292 16 211 133 310 265 256 135 176 161 185 212 202 157 202 196 202 213 216 236 213 220 222 242 243 268 64 294 288 255 327 263 303 252 168 204 207 204 208 207 198
324 324 321 327 330 231 69 308 277 219 223 136 132 118 160 195 125 179 193 209 220 204 217 219 204 225 237 240 243 263 346 302 289 263 280 205 259 108 168 203 211 211 205 210 206
325 322 318 192 213 283 301 289 216 228 169 139 131 175 172 199 182 139 177 229 245 216 220 255 201 260 249 243 240 160 226 231 235 269 263 93 256 147 153 207 199 203 210 206 210
324 321 242 239 57 334 289 202 220 250 149 155 155 177 191 179 171 172 182 193 192 198 205 212 237 223 246 232 218 220 238 243 225 211 246 87 254 313 176 231 248 201 199 211 204
325 313 171 281 294 288 221 215 241 39 173 117 174 180 195 187 201 197 194 201 210 210 228 210 207 214 198 231 199 220 235 242 232 255 231 138 248 134 78 342 274 248 246 193 208
315 180 201 51 192 229 237 217 324 39 13 227 170 204 190 195 227 201 209 212 196 219 231 199 242 136 230 212 237 181 234 255 280 275 265 269 234 247 254 143 192 240 211 213 198
293 241 67 329 241 242 237 250 130 7 320 228 239 252 194 187 202 197 192 204 222 198 235 220 260 195 138 226 237 257 227 220 227 257 262 258 237 279 286 301 316 208 248 232 208
238 233 48 99 236 223 235 83 149 65 339 282 211 211 234 186 220 198 190 128 222 189 226 234 230 172 170 205 220 193 232 241 272 241 247 254 251 273 315 297 311 313 277 258 200
288 237 43 250 222 261 204 7 250 21 18 259 268 294 287 181 197 197 179 138 150 184 197 219 244 237 221 220 250 256 213 224 227 231 239 272 280 302 303 293 313 299 281 296 215
322 344 86 277 255 163 139 121 40 43 41 3 119 349 337 185 198 189 138 105 49 192 197 170 220 234 225 192 205 237 240 238 231 242 249 256 258 273 287 281 288 283 278 227 198
285 232 124 89 18 310 176 129 143 50 68 33 2 288 221 195 221 157 151 116 64 42 324 255 250 239 249 357 317 203 224 225 244 238 244 248 266 266 281 287 289 232 200 225 189
350 55 12 81 94 83 251 326 197 135 28 17 103 35 357 222 182 130 84 176 148 63 202 263 252 239 264 287 279 269 246 216 230 245 246 258 257 268 268 284 316 310 177 191 184
352 335 7 12 309 239 147 75 298 87 333 95 42 356 344 36 9 90 346 88 43 321 291 251 261 278 259 245 248 254 251 250 234 248 245 253 267 269 276 341 284 257 211 201 193
37 119 287 27 339 261 54 67 79 307 91 56 350 298 242 59 328 304 294 292 286 296 300 273 271 243 253 244 254 252 242 241 244 228 243 237 240 259 295 314 304 296 214 215 201